| time (UTC) | temp C | wind direction | speed KPH | gust KPH | rain 1hr cm | rain 24hr cm | rain mn cm | humidity % | barometer mb |
| 20260506025554 | 22 | 289 | 0.0 | 0.0 | 0.00 | 0.00 | 0.00 | 37 | 1010.1 |
| 20260506025050 | 22 | 290 | 0.0 | 0.0 | 0.00 | 0.00 | 0.00 | 37 | 1010.0 |
| 20260506024547 | 23 | 291 | 0.0 | 0.0 | 0.00 | 0.00 | 0.00 | 37 | 1010.2 |
| 20260506024044 | 23 | 287 | 0.0 | 1.6 | 0.00 | 0.00 | 0.00 | 36 | 1010.1 |
| 20260506023539 | 23 | 292 | 0.0 | 0.0 | 0.00 | 0.00 | 0.00 | 36 | 1010.2 |
| 20260506023037 | 23 | 286 | 0.0 | 0.0 | 0.00 | 0.00 | 0.00 | 35 | 1010.3 |
| 20260506022535 | 23 | 266 | 0.0 | 0.0 | 0.00 | 0.00 | 0.00 | 35 | 1010.2 |
| 20260506022032 | 23 | 275 | 0.0 | 0.0 | 0.00 | 0.00 | 0.00 | 35 | 1010.0 |
| 20260506021529 | 23 | 273 | 0.0 | 0.0 | 0.00 | 0.00 | 0.00 | 35 | 1010.2 |
| 20260506021026 | 23 | 263 | 0.0 | 0.0 | 0.00 | 0.00 | 0.00 | 35 | 1009.9 |
| 20260506020524 | 24 | 245 | 0.0 | 0.0 | 0.00 | 0.00 | 0.00 | 35 | 1010.0 |
| 20260506020021 | 24 | 260 | 1.6 | 3.2 | 0.00 | 0.00 | 0.00 | 34 | 1009.9 |
| 20260506015519 | 24 | 263 | 1.6 | 3.2 | 0.00 | 0.00 | 0.00 | 34 | 1009.9 |
| 20260506015015 | 25 | 247 | 1.6 | 3.2 | 0.00 | 0.00 | 0.00 | 34 | 1010.1 |
| 20260506014513 | 25 | 274 | 6.4 | 6.4 | 0.00 | 0.00 | 0.00 | 34 | 1010.0 |
| 20260506014009 | 25 | 276 | 3.2 | 3.2 | 0.00 | 0.00 | 0.00 | 33 | 1010.1 |
| 20260506013507 | 25 | 253 | 9.7 | 16.1 | 0.00 | 0.00 | 0.00 | 33 | 1010.0 |
| 20260506013003 | 25 | 251 | 4.8 | 9.7 | 0.00 | 0.00 | 0.00 | 33 | 1009.9 |
| 20260506012459 | 25 | 258 | 3.2 | 6.4 | 0.00 | 0.00 | 0.00 | 33 | 1009.8 |
| 20260506011956 | 25 | 236 | 6.4 | 12.9 | 0.00 | 0.00 | 0.00 | 33 | 1009.8 |
| 20260506011454 | 25 | 266 | 11.3 | 16.1 | 0.00 | 0.00 | 0.00 | 32 | 1009.8 |
| 20260506010950 | 25 | 284 | 11.3 | 14.5 | 0.00 | 0.00 | 0.00 | 32 | 1009.5 |
| 20260506010449 | 26 | 272 | 9.7 | 12.9 | 0.00 | 0.00 | 0.00 | 32 | 1009.6 |
| 20260506005945 | 26 | 274 | 8.0 | 11.3 | 0.00 | 0.00 | 0.00 | 32 | 1009.9 |
| 20260506005443 | 26 | 217 | 1.6 | 3.2 | 0.00 | 0.00 | 0.00 | 32 | 1009.9 |
| 20260506004938 | 26 | 214 | 6.4 | 9.7 | 0.00 | 0.00 | 0.00 | 31 | 1009.9 |
| 20260506004436 | 26 | 230 | 9.7 | 16.1 | 0.00 | 0.00 | 0.00 | 32 | 1009.9 |
| 20260506003932 | 26 | 246 | 3.2 | 6.4 | 0.00 | 0.00 | 0.00 | 32 | 1009.8 |
| 20260506003429 | 25 | 201 | 6.4 | 6.4 | 0.00 | 0.00 | 0.00 | 32 | 1009.8 |
| 20260506002925 | 25 | 269 | 3.2 | 4.8 | 0.00 | 0.00 | 0.00 | 32 | 1009.8 |
| 20260506002421 | 26 | 250 | 3.2 | 4.8 | 0.00 | 0.00 | 0.00 | 32 | 1009.9 |
| 20260506001917 | 26 | 281 | 6.4 | 11.3 | 0.00 | 0.00 | 0.00 | 31 | 1009.9 |
| 20260506001414 | 26 | 282 | 9.7 | 14.5 | 0.00 | 0.00 | 0.00 | 32 | 1010.0 |
| 20260506000911 | 25 | 263 | 4.8 | 4.8 | 0.00 | 0.00 | 0.00 | 32 | 1010.1 |
| 20260506000409 | 25 | 254 | 6.4 | 11.3 | 0.00 | 0.00 | 0.00 | 32 | 1009.9 |
| 20260505235905 | 25 | 270 | 4.8 | 9.7 | 0.00 | 0.00 | 0.00 | 32 | 1010.2 |
| 20260505235403 | 25 | 281 | 4.8 | 6.4 | 0.00 | 0.00 | 0.00 | 32 | 1010.1 |
| 20260505234900 | 25 | 239 | 9.7 | 14.5 | 0.00 | 0.00 | 0.00 | 31 | 1009.9 |
| 20260505234358 | 26 | 264 | 6.4 | 14.5 | 0.00 | 0.00 | 0.00 | 31 | 1010.2 |
| 20260505233854 | 26 | 281 | 9.7 | 16.1 | 0.00 | 0.00 | 0.00 | 31 | 1010.1 |
| 20260505233352 | 26 | 236 | 11.3 | 20.9 | 0.00 | 0.00 | 0.00 | 31 | 1010.0 |
| 20260505232849 | 26 | 293 | 14.5 | 20.9 | 0.00 | 0.00 | 0.00 | 31 | 1010.2 |
| 20260505232347 | 26 | 205 | 14.5 | 22.5 | 0.00 | 0.00 | 0.00 | 30 | 1010.0 |
| 20260505231843 | 26 | 275 | 11.3 | 17.7 | 0.00 | 0.00 | 0.00 | 30 | 1010.1 |
| 20260505231341 | 26 | 240 | 20.9 | 29.0 | 0.00 | 0.00 | 0.00 | 30 | 1010.2 |
| 20260505230839 | 26 | 293 | 9.7 | 20.9 | 0.00 | 0.00 | 0.00 | 31 | 1010.1 |
| 20260505230336 | 26 | 227 | 0.0 | 0.0 | 0.00 | 0.00 | 0.00 | 31 | 1010.0 |
| 20260505225833 | 26 | 252 | 4.8 | 9.7 | 0.00 | 0.00 | 0.00 | 30 | 1010.0 |
| 20260505225330 | 26 | 225 | 9.7 | 16.1 | 0.00 | 0.00 | 0.00 | 30 | 1009.8 |
| 20260505224825 | 26 | 243 | 4.8 | 9.7 | 0.00 | 0.00 | 0.00 | 30 | 1009.8 |
| 20260505224323 | 27 | 246 | 4.8 | 9.7 | 0.00 | 0.00 | 0.00 | 30 | 1009.9 |
| 20260505223820 | 27 | 259 | 12.9 | 17.7 | 0.00 | 0.00 | 0.00 | 28 | 1010.1 |
| 20260505223317 | 27 | 247 | 17.7 | 17.7 | 0.00 | 0.00 | 0.00 | 29 | 1010.1 |
| 20260505222812 | 27 | 274 | 3.2 | 4.8 | 0.00 | 0.00 | 0.00 | 30 | 1009.9 |
| 20260505222309 | 27 | 282 | 9.7 | 11.3 | 0.00 | 0.00 | 0.00 | 30 | 1010.1 |
| 20260505221806 | 27 | 307 | 11.3 | 14.5 | 0.00 | 0.00 | 0.00 | 29 | 1009.9 |
| 20260505221303 | 26 | 267 | 0.0 | 3.2 | 0.00 | 0.00 | 0.00 | 30 | 1009.8 |
| 20260505220800 | 26 | 267 | 6.4 | 6.4 | 0.00 | 0.00 | 0.00 | 31 | 1010.2 |
| 20260505220257 | 26 | 232 | 3.2 | 9.7 | 0.00 | 0.00 | 0.00 | 31 | 1010.1 |
| 20260505215755 | 26 | 282 | 6.4 | 12.9 | 0.00 | 0.00 | 0.00 | 31 | 1010.2 |
| 20260505215253 | 27 | 261 | 12.9 | 20.9 | 0.00 | 0.00 | 0.00 | 30 | 1010.3 |
| 20260505214750 | 27 | 255 | 4.8 | 6.4 | 0.00 | 0.00 | 0.00 | 30 | 1010.2 |
| 20260505214247 | 27 | 241 | 4.8 | 11.3 | 0.00 | 0.00 | 0.00 | 30 | 1010.4 |
| 20260505213744 | 27 | 263 | 3.2 | 4.8 | 0.00 | 0.00 | 0.00 | 30 | 1010.1 |
| 20260505213242 | 27 | 206 | 9.7 | 14.5 | 0.00 | 0.00 | 0.00 | 30 | 1010.1 |
| 20260505212737 | 27 | 229 | 8.0 | 14.5 | 0.00 | 0.00 | 0.00 | 30 | 1010.2 |
| 20260505212235 | 26 | 262 | 16.1 | 25.7 | 0.00 | 0.00 | 0.00 | 30 | 1010.2 |
| 20260505211732 | 26 | 306 | 14.5 | 17.7 | 0.00 | 0.00 | 0.00 | 30 | 1010.3 |
| 20260505211229 | 26 | 267 | 8.0 | 11.3 | 0.00 | 0.00 | 0.00 | 31 | 1010.2 |
| 20260505210726 | 26 | 251 | 9.7 | 17.7 | 0.00 | 0.00 | 0.00 | 31 | 1010.4 |
| 20260505210222 | 26 | 271 | 8.0 | 12.9 | 0.00 | 0.00 | 0.00 | 31 | 1010.5 |
| 20260505205720 | 25 | 272 | 9.7 | 12.9 | 0.00 | 0.00 | 0.00 | 31 | 1010.9 |
| 20260505205218 | 25 | 236 | 16.1 | 22.5 | 0.00 | 0.00 | 0.00 | 30 | 1010.7 |
| 20260505204714 | 25 | 249 | 0.0 | 3.2 | 0.00 | 0.00 | 0.00 | 31 | 1010.9 |
| 20260505204212 | 25 | 262 | 9.7 | 14.5 | 0.00 | 0.00 | 0.00 | 31 | 1011.2 |
| 20260505203709 | 25 | 257 | 1.6 | 3.2 | 0.00 | 0.00 | 0.00 | 32 | 1011.0 |
| 20260505203206 | 25 | 244 | 12.9 | 17.7 | 0.00 | 0.00 | 0.00 | 31 | 1011.0 |
| 20260505202701 | 25 | 274 | 14.5 | 17.7 | 0.00 | 0.00 | 0.00 | 31 | 1011.3 |
| 20260505202158 | 25 | 262 | 6.4 | 11.3 | 0.00 | 0.00 | 0.00 | 32 | 1011.3 |
| 20260505201654 | 24 | 191 | 0.0 | 0.0 | 0.00 | 0.00 | 0.00 | 33 | 1011.3 |
| 20260505201153 | 24 | 189 | 0.0 | 0.0 | 0.00 | 0.00 | 0.00 | 33 | 1011.3 |
| 20260505200651 | 24 | 189 | 0.0 | 1.6 | 0.00 | 0.00 | 0.00 | 32 | 1011.2 |
| 20260505200147 | 24 | 209 | 0.0 | 0.0 | 0.00 | 0.00 | 0.00 | 31 | 1011.2 |
| 20260505195643 | 24 | 210 | 0.0 | 0.0 | 0.00 | 0.00 | 0.00 | 33 | 1011.3 |
| 20260505195140 | 23 | 210 | 0.0 | 0.0 | 0.00 | 0.00 | 0.00 | 32 | 1011.2 |
| 20260505194637 | 23 | 210 | 0.0 | 0.0 | 0.00 | 0.00 | 0.00 | 33 | 1011.3 |
| 20260505194133 | 23 | 215 | 1.6 | 1.6 | 0.00 | 0.00 | 0.00 | 31 | 1011.3 |
| 20260505193630 | 23 | 253 | 0.0 | 1.6 | 0.00 | 0.00 | 0.00 | 31 | 1011.3 |
| 20260505193127 | 23 | 225 | 0.0 | 1.6 | 0.00 | 0.00 | 0.00 | 31 | 1011.3 |
| 20260505192626 | 23 | 247 | 1.6 | 4.8 | 0.00 | 0.00 | 0.00 | 31 | 1011.2 |
| 20260505192123 | 23 | 272 | 1.6 | 4.8 | 0.00 | 0.00 | 0.00 | 31 | 1011.4 |
| 20260505191621 | 23 | 274 | 6.4 | 9.7 | 0.00 | 0.00 | 0.00 | 30 | 1011.6 |
| 20260505191119 | 23 | 259 | 1.6 | 3.2 | 0.00 | 0.00 | 0.00 | 32 | 1011.4 |
| 20260505190614 | 23 | 243 | 0.0 | 0.0 | 0.00 | 0.00 | 0.00 | 33 | 1011.6 |
| 20260505190109 | 23 | 233 | 0.0 | 1.6 | 0.00 | 0.00 | 0.00 | 32 | 1011.6 |
| 20260505185607 | 23 | 229 | 1.6 | 3.2 | 0.00 | 0.00 | 0.00 | 32 | 1011.5 |
| 20260505185103 | 23 | 229 | 0.0 | 0.0 | 0.00 | 0.00 | 0.00 | 32 | 1011.6 |
| 20260505184559 | 23 | 251 | 0.0 | 0.0 | 0.00 | 0.00 | 0.00 | 33 | 1011.6 |
| 20260505184056 | 23 | 267 | 0.0 | 3.2 | 0.00 | 0.00 | 0.00 | 33 | 1011.6 |
| 20260505183553 | 23 | 278 | 1.6 | 3.2 | 0.00 | 0.00 | 0.00 | 33 | 1011.9 |
| 20260505183051 | 24 | 255 | 6.4 | 9.7 | 0.00 | 0.00 | 0.00 | 32 | 1011.7 |
| 20260505182541 | 24 | 251 | 3.2 | 9.7 | 0.00 | 0.00 | 0.00 | 33 | 1011.7 |
| 20260505182038 | 24 | 237 | 1.6 | 4.8 | 0.00 | 0.00 | 0.00 | 34 | 1012.1 |
| 20260505181535 | 24 | 237 | 1.6 | 4.8 | 0.00 | 0.00 | 0.00 | 34 | 1012.1 |
| 20260505181032 | 24 | 223 | 12.9 | 14.5 | 0.00 | 0.00 | 0.00 | 33 | 1012.1 |
| 20260505180527 | 24 | 242 | 1.6 | 1.6 | 0.00 | 0.00 | 0.00 | 34 | 1012.1 |
| 20260505180026 | 24 | 223 | 8.0 | 11.3 | 0.00 | 0.00 | 0.00 | 33 | 1012.1 |
| 20260505175526 | 24 | 248 | 0.0 | 1.6 | 0.00 | 0.00 | 0.00 | 34 | 1012.1 |
| 20260505175023 | 24 | 271 | 8.0 | 11.3 | 0.00 | 0.00 | 0.00 | 33 | 1012.2 |
| 20260505174520 | 24 | 261 | 6.4 | 9.7 | 0.00 | 0.00 | 0.00 | 34 | 1012.2 |
| 20260505174016 | 24 | 235 | 3.2 | 4.8 | 0.00 | 0.00 | 0.00 | 35 | 1012.1 |
| 20260505173513 | 24 | 240 | 3.2 | 4.8 | 0.00 | 0.00 | 0.00 | 35 | 1012.1 |
| 20260505173010 | 23 | 241 | 3.2 | 6.4 | 0.00 | 0.00 | 0.00 | 35 | 1012.1 |
| 20260505172508 | 24 | 242 | 0.0 | 1.6 | 0.00 | 0.00 | 0.00 | 34 | 1011.9 |
| 20260505172009 | 24 | 214 | 1.6 | 4.8 | 0.00 | 0.00 | 0.00 | 35 | 1011.8 |
| 20260505171505 | 24 | 254 | 6.4 | 11.3 | 0.00 | 0.00 | 0.00 | 34 | 1011.8 |
| 20260505171001 | 24 | 232 | 3.2 | 11.3 | 0.00 | 0.00 | 0.00 | 35 | 1012.1 |
| 20260505170458 | 23 | 255 | 6.4 | 12.9 | 0.00 | 0.00 | 0.00 | 34 | 1011.7 |
| 20260505165953 | 23 | 235 | 6.4 | 11.3 | 0.00 | 0.00 | 0.00 | 35 | 1011.8 |
| 20260505165450 | 23 | 214 | 8.0 | 14.5 | 0.00 | 0.00 | 0.00 | 34 | 1011.8 |
| 20260505164945 | 23 | 250 | 12.9 | 16.1 | 0.00 | 0.00 | 0.00 | 34 | 1011.7 |
| 20260505164442 | 23 | 257 | 0.0 | 3.2 | 0.00 | 0.00 | 0.00 | 35 | 1011.8 |
| 20260505163940 | 23 | 269 | 14.5 | 16.1 | 0.00 | 0.00 | 0.00 | 34 | 1011.7 |
| 20260505163438 | 23 | 250 | 1.6 | 3.2 | 0.00 | 0.00 | 0.00 | 35 | 1011.7 |
| 20260505162937 | 23 | 247 | 4.8 | 6.4 | 0.00 | 0.00 | 0.00 | 34 | 1011.6 |
| 20260505162433 | 23 | 218 | 0.0 | 0.0 | 0.00 | 0.00 | 0.00 | 35 | 1011.6 |
| 20260505161930 | 23 | 202 | 1.6 | 4.8 | 0.00 | 0.00 | 0.00 | 33 | 1011.7 |
| 20260505161426 | 23 | 177 | 1.6 | 3.2 | 0.00 | 0.00 | 0.00 | 32 | 1011.6 |
| 20260505160924 | 23 | 181 | 1.6 | 3.2 | 0.00 | 0.00 | 0.00 | 33 | 1011.7 |
| 20260505160422 | 23 | 163 | 3.2 | 4.8 | 0.00 | 0.00 | 0.00 | 32 | 1011.4 |
| 20260505152858 | 22 | 195 | 3.2 | 4.8 | 0.00 | 0.00 | 0.00 | 34 | 1011.5 |
| 20260505152356 | 22 | 172 | 0.0 | 0.0 | 0.00 | 0.00 | 0.00 | 34 | 1011.4 |
| 20260505151855 | 22 | 176 | 0.0 | 0.0 | 0.00 | 0.00 | 0.00 | 35 | 1011.6 |
| 20260505151352 | 22 | 163 | 4.8 | 4.8 | 0.00 | 0.00 | 0.00 | 34 | 1011.7 |
| 20260505150849 | 22 | 176 | 4.8 | 6.4 | 0.00 | 0.00 | 0.00 | 34 | 1011.8 |
| 20260505150347 | 22 | 175 | 0.0 | 0.0 | 0.00 | 0.00 | 0.00 | 34 | 1011.7 |
| 20260505140317 | 22 | 200 | 1.6 | 4.8 | 0.00 | 0.00 | 0.00 | 31 | 1011.7 |
| 20260505130240 | 22 | 141 | 0.0 | 0.0 | 0.00 | 0.00 | 0.00 | 31 | 1010.6 |
| 20260505124731 | 23 | 104 | 0.0 | 0.0 | 0.00 | 0.00 | 0.00 | 29 | 1010.2 |
| 20260505124228 | 21 | 189 | 3.2 | 6.4 | 0.00 | 0.00 | 0.00 | 30 | 1010.1 |
| 20260505123723 | 22 | 81 | 0.0 | 0.0 | 0.00 | 0.00 | 0.00 | 32 | 1010.1 |
| 20260505123220 | 22 | 81 | 0.0 | 0.0 | 0.00 | 0.00 | 0.00 | 30 | 1009.6 |
| 20260505122716 | 22 | 31 | 0.0 | 0.0 | 0.00 | 0.00 | 0.00 | 31 | 1010.1 |
| 20260505122214 | 22 | 41 | 0.0 | 0.0 | 0.00 | 0.00 | 0.00 | 29 | 1009.9 |
| 20260505121710 | 21 | 171 | 0.0 | 0.0 | 0.00 | 0.00 | 0.00 | 33 | 1009.8 |
| 20260505121207 | 22 | 124 | 0.0 | 0.0 | 0.00 | 0.00 | 0.00 | 30 | 1009.9 |
| 20260505120703 | 20 | 161 | 0.0 | 0.0 | 0.00 | 0.00 | 0.00 | 33 | 1009.9 |
| 20260505120159 | 21 | 153 | 0.0 | 0.0 | 0.00 | 0.00 | 0.00 | 33 | 1009.6 |
| 20260505115653 | 20 | 156 | 3.2 | 3.2 | 0.00 | 0.00 | 0.00 | 31 | 1009.5 |
| 20260505115151 | 20 | 169 | 0.0 | 0.0 | 0.00 | 0.00 | 0.00 | 34 | 1009.4 |
| 20260505114648 | 20 | 171 | 0.0 | 0.0 | 0.00 | 0.00 | 0.00 | 34 | 1009.1 |
| 20260505114144 | 20 | 171 | 0.0 | 0.0 | 0.00 | 0.00 | 0.00 | 35 | 1009.2 |
| 20260505113641 | 20 | 173 | 0.0 | 0.0 | 0.00 | 0.00 | 0.00 | 35 | 1009.2 |
| 20260505113137 | 21 | 176 | 0.0 | 0.0 | 0.00 | 0.00 | 0.00 | 33 | 1009.2 |
| 20260505112633 | 21 | 209 | 0.0 | 0.0 | 0.00 | 0.00 | 0.00 | 33 | 1009.3 |
| 20260505112132 | 21 | 217 | 0.0 | 0.0 | 0.00 | 0.00 | 0.00 | 32 | 1009.1 |
| 20260505111631 | 21 | 223 | 0.0 | 0.0 | 0.00 | 0.00 | 0.00 | 32 | 1009.1 |
| 20260505111127 | 21 | 223 | 0.0 | 0.0 | 0.00 | 0.00 | 0.00 | 31 | 1009.2 |
| 20260505110624 | 21 | 223 | 0.0 | 0.0 | 0.00 | 0.00 | 0.00 | 32 | 1009.3 |
| 20260505110121 | 21 | 224 | 0.0 | 0.0 | 0.00 | 0.00 | 0.00 | 32 | 1009.1 |
| 20260505102057 | 21 | 212 | 0.0 | 0.0 | 0.00 | 0.00 | 0.00 | 31 | 1009.2 |
| 20260505101555 | 21 | 212 | 0.0 | 0.0 | 0.00 | 0.00 | 0.00 | 31 | 1009.2 |
| 20260505101051 | 21 | 216 | 0.0 | 0.0 | 0.00 | 0.00 | 0.00 | 33 | 1009.2 |
| 20260505100548 | 21 | 224 | 0.0 | 0.0 | 0.00 | 0.00 | 0.00 | 31 | 1009.1 |
| 20260505100045 | 22 | 230 | 0.0 | 0.0 | 0.00 | 0.00 | 0.00 | 31 | 1009.0 |
| 20260505095541 | 22 | 231 | 0.0 | 0.0 | 0.00 | 0.00 | 0.00 | 29 | 1009.0 |
| 20260505095037 | 22 | 230 | 0.0 | 0.0 | 0.00 | 0.00 | 0.00 | 28 | 1009.1 |
| 20260505094534 | 22 | 245 | 0.0 | 0.0 | 0.00 | 0.00 | 0.00 | 28 | 1009.1 |
| 20260505094030 | 22 | 230 | 0.0 | 0.0 | 0.00 | 0.00 | 0.00 | 28 | 1009.0 |
| 20260505093527 | 22 | 243 | 0.0 | 0.0 | 0.00 | 0.00 | 0.00 | 27 | 1009.0 |
| 20260505093024 | 22 | 227 | 0.0 | 1.6 | 0.00 | 0.00 | 0.00 | 27 | 1008.9 |
| 20260505092521 | 23 | 232 | 0.0 | 0.0 | 0.00 | 0.00 | 0.00 | 26 | 1008.8 |
| 20260505092020 | 23 | 229 | 0.0 | 0.0 | 0.00 | 0.00 | 0.00 | 26 | 1008.7 |
| 20260505091516 | 23 | 260 | 3.2 | 6.4 | 0.00 | 0.00 | 0.00 | 25 | 1008.9 |
| 20260505091015 | 23 | 278 | 1.6 | 6.4 | 0.00 | 0.00 | 0.00 | 26 | 1008.9 |
| 20260505090512 | 23 | 282 | 1.6 | 3.2 | 0.00 | 0.00 | 0.00 | 27 | 1008.9 |
| 20260505090010 | 23 | 324 | 9.7 | 11.3 | 0.00 | 0.00 | 0.00 | 26 | 1009.1 |
| 20260505085508 | 23 | 282 | 8.0 | 12.9 | 0.00 | 0.00 | 0.00 | 26 | 1008.9 |
| 20260505085006 | 23 | 250 | 3.2 | 4.8 | 0.00 | 0.00 | 0.00 | 26 | 1009.1 |
| 20260505084503 | 23 | 316 | 6.4 | 6.4 | 0.00 | 0.00 | 0.00 | 27 | 1008.9 |
| 20260505084001 | 22 | 270 | 0.0 | 1.6 | 0.00 | 0.00 | 0.00 | 27 | 1008.8 |
| 20260505083458 | 22 | 276 | 1.6 | 3.2 | 0.00 | 0.00 | 0.00 | 28 | 1008.8 |
| 20260505082954 | 22 | 256 | 6.4 | 9.7 | 0.00 | 0.00 | 0.00 | 28 | 1008.9 |
| 20260505082450 | 22 | 240 | 8.0 | 11.3 | 0.00 | 0.00 | 0.00 | 28 | 1008.9 |
| 20260505081947 | 22 | 291 | 1.6 | 6.4 | 0.00 | 0.00 | 0.00 | 28 | 1008.9 |
| 20260505081444 | 22 | 275 | 6.4 | 16.1 | 0.00 | 0.00 | 0.00 | 29 | 1009.3 |
| 20260505080940 | 22 | 261 | 4.8 | 9.7 | 0.00 | 0.00 | 0.00 | 29 | 1009.2 |
| 20260505080437 | 22 | 260 | 3.2 | 4.8 | 0.00 | 0.00 | 0.00 | 29 | 1009.2 |
| 20260505075932 | 22 | 263 | 0.0 | 1.6 | 0.00 | 0.00 | 0.00 | 29 | 1009.4 |
| 20260505075429 | 22 | 293 | 1.6 | 3.2 | 0.00 | 0.00 | 0.00 | 29 | 1009.6 |
| 20260505074927 | 22 | 249 | 0.0 | 0.0 | 0.00 | 0.00 | 0.00 | 29 | 1009.4 |
| 20260505074424 | 23 | 260 | 0.0 | 0.0 | 0.00 | 0.00 | 0.00 | 29 | 1009.4 |
| 20260505073921 | 23 | 264 | 0.0 | 1.6 | 0.00 | 0.00 | 0.00 | 28 | 1009.8 |
| 20260505073419 | 22 | 242 | 0.0 | 0.0 | 0.00 | 0.00 | 0.00 | 29 | 1009.9 |
| 20260505072916 | 22 | 238 | 0.0 | 0.0 | 0.00 | 0.00 | 0.00 | 29 | 1009.8 |
| 20260505072411 | 22 | 251 | 1.6 | 3.2 | 0.00 | 0.00 | 0.00 | 31 | 1009.6 |
| 20260505071908 | 21 | 234 | 0.0 | 0.0 | 0.00 | 0.00 | 0.00 | 33 | 1009.6 |
| 20260505071404 | 21 | 232 | 0.0 | 0.0 | 0.00 | 0.00 | 0.00 | 34 | 1009.6 |
| 20260505070903 | 21 | 231 | 0.0 | 0.0 | 0.00 | 0.00 | 0.00 | 33 | 1009.8 |
| 20260505070358 | 21 | 232 | 0.0 | 0.0 | 0.00 | 0.00 | 0.00 | 34 | 1009.6 |
| 20260505065854 | 21 | 232 | 0.0 | 0.0 | 0.00 | 0.00 | 0.00 | 35 | 1009.6 |
| 20260505065351 | 21 | 232 | 0.0 | 0.0 | 0.00 | 0.00 | 0.00 | 33 | 1009.6 |
| 20260505064848 | 22 | 233 | 0.0 | 0.0 | 0.00 | 0.00 | 0.00 | 33 | 1009.5 |
| 20260505064345 | 22 | 233 | 0.0 | 0.0 | 0.00 | 0.00 | 0.00 | 33 | 1009.4 |
| 20260505063843 | 22 | 237 | 0.0 | 0.0 | 0.00 | 0.00 | 0.00 | 34 | 1009.6 |
| 20260505063339 | 22 | 231 | 1.6 | 1.6 | 0.00 | 0.00 | 0.00 | 33 | 1009.6 |
| 20260505062836 | 22 | 232 | 0.0 | 0.0 | 0.00 | 0.00 | 0.00 | 33 | 1009.6 |
| 20260505062333 | 22 | 232 | 0.0 | 0.0 | 0.00 | 0.00 | 0.00 | 32 | 1009.5 |
| 20260505061830 | 22 | 232 | 0.0 | 0.0 | 0.00 | 0.00 | 0.00 | 32 | 1009.6 |
| 20260505061328 | 22 | 232 | 0.0 | 0.0 | 0.00 | 0.00 | 0.00 | 31 | 1009.8 |
| 20260505060825 | 22 | 233 | 0.0 | 0.0 | 0.00 | 0.00 | 0.00 | 31 | 1009.8 |
| 20260505060322 | 22 | 232 | 0.0 | 0.0 | 0.00 | 0.00 | 0.00 | 31 | 1009.9 |
| 20260505055818 | 22 | 233 | 0.0 | 0.0 | 0.00 | 0.00 | 0.00 | 32 | 1009.6 |
| 20260505055314 | 23 | 234 | 0.0 | 0.0 | 0.00 | 0.00 | 0.00 | 31 | 1009.8 |
| 20260505054812 | 23 | 234 | 0.0 | 0.0 | 0.00 | 0.00 | 0.00 | 30 | 1009.9 |
| 20260505054309 | 23 | 234 | 0.0 | 0.0 | 0.00 | 0.00 | 0.00 | 30 | 1009.6 |
| 20260505053807 | 23 | 254 | 0.0 | 0.0 | 0.00 | 0.00 | 0.00 | 30 | 1009.9 |
| 20260505053303 | 23 | 242 | 0.0 | 1.6 | 0.00 | 0.00 | 0.00 | 29 | 1010.0 |
| 20260505052800 | 24 | 243 | 0.0 | 0.0 | 0.00 | 0.00 | 0.00 | 29 | 1010.0 |
| 20260505052257 | 24 | 254 | 0.0 | 3.2 | 0.00 | 0.00 | 0.00 | 28 | 1010.0 |
| 20260505051754 | 24 | 243 | 0.0 | 0.0 | 0.00 | 0.00 | 0.00 | 28 | 1010.0 |
| 20260505051252 | 24 | 235 | 1.6 | 3.2 | 0.00 | 0.00 | 0.00 | 27 | 1009.9 |
| 20260505050750 | 25 | 232 | 0.0 | 0.0 | 0.00 | 0.00 | 0.00 | 27 | 1010.0 |
| 20260505050248 | 25 | 232 | 0.0 | 0.0 | 0.00 | 0.00 | 0.00 | 27 | 1010.0 |
| 20260505041718 | 25 | 264 | 3.2 | 4.8 | 0.00 | 0.00 | 0.00 | 26 | 1010.0 |
| 20260505041215 | 25 | 271 | 1.6 | 4.8 | 0.00 | 0.00 | 0.00 | 26 | 1010.0 |
| 20260505040712 | 25 | 247 | 0.0 | 1.6 | 0.00 | 0.00 | 0.00 | 26 | 1010.1 |
| 20260505040209 | 25 | 282 | 6.4 | 9.7 | 0.00 | 0.00 | 0.00 | 26 | 1010.0 |
| 20260505035706 | 25 | 268 | 0.0 | 0.0 | 0.00 | 0.00 | 0.00 | 26 | 1009.6 |
| 20260505035202 | 25 | 256 | 1.6 | 3.2 | 0.00 | 0.00 | 0.00 | 26 | 1009.9 |
| 20260505034659 | 25 | 263 | 1.6 | 3.2 | 0.00 | 0.00 | 0.00 | 26 | 1009.6 |
| 20260505034156 | 25 | 249 | 0.0 | 0.0 | 0.00 | 0.00 | 0.00 | 26 | 1009.3 |
| 20260505033652 | 26 | 243 | 1.6 | 6.4 | 0.00 | 0.00 | 0.00 | 25 | 1009.6 |
| 20260505033151 | 26 | 246 | 0.0 | 1.6 | 0.00 | 0.00 | 0.00 | 24 | 1009.2 |
| 20260505032648 | 26 | 229 | 3.2 | 3.2 | 0.00 | 0.00 | 0.00 | 24 | 1009.2 |
| 20260505032144 | 27 | 261 | 4.8 | 6.4 | 0.00 | 0.00 | 0.00 | 23 | 1009.3 |
| 20260505031642 | 27 | 256 | 9.7 | 12.9 | 0.00 | 0.00 | 0.00 | 22 | 1009.2 |
| 20260505031138 | 27 | 239 | 3.2 | 6.4 | 0.00 | 0.00 | 0.00 | 23 | 1009.2 |
| 20260505030635 | 27 | 255 | 4.8 | 9.7 | 0.00 | 0.00 | 0.00 | 23 | 1009.1 |
| 20260505030131 | 26 | 256 | 6.4 | 9.7 | 0.00 | 0.00 | 0.00 | 23 | 1009.2 |